• In Belarus
  • List of Countries
  • For 7 days
  • Water Temperature
  • Weather Map
  • Weather Widgets
  • user-avatar
    Login

    Hourly Weather Canillo

    Today, 19 August, Monday

    Time Temperature Precipitation Wind Pressure Humidity
    00:00 +14°C° 0.1 mm 1 mps 620 mmHg 92%
    01:00 +13°C° 0 mm 1 mps 620 mmHg 93%
    02:00 +13°C° 0 mm 1 mps 620 mmHg 93%
    03:00 +12°C° 0 mm 1 mps 620 mmHg 93%
    04:00 +12°C° 0 mm 1 mps 620 mmHg 93%
    05:00 +12°C° 0 mm 1 mps 620 mmHg 93%
    06:00 +13°C° 0 mm 1 mps 620 mmHg 92%
    07:00 +14°C° 0 mm 1 mps 621 mmHg 87%
    08:00 +16°C° 0 mm 1 mps 622 mmHg 81%
    09:00 +17°C° 0 mm 2 mps 623 mmHg 75%
    10:00 +18°C° 0 mm 2 mps 623 mmHg 67%
    11:00 +19°C° 0 mm 3 mps 624 mmHg 60%
    12:00 +20°C° 0 mm 3 mps 624 mmHg 53%
    13:00 +20°C° 0.1 mm 3 mps 624 mmHg 53%
    14:00 +20°C° 0.1 mm 3 mps 623 mmHg 53%
    15:00 +20°C° 0.1 mm 3 mps 623 mmHg 53%
    16:00 +18°C° 0.1 mm 2 mps 623 mmHg 61%
    17:00 +17°C° 0.1 mm 2 mps 622 mmHg 69%
    18:00 +16°C° 0.1 mm 1 mps 621 mmHg 77%
    19:00 +15°C° 0.6 mm 1 mps 621 mmHg 82%
    20:00 +14°C° 0.6 mm 1 mps 621 mmHg 86%
    21:00 +12°C° 0.6 mm 0 mps 621 mmHg 91%
    22:00 +12°C° 0.6 mm 0 mps 621 mmHg 92%
    23:00 +12°C° 0.6 mm 0 mps 621 mmHg 93%

    Tomorrow, 20 August, Tuesday

    Time Temperature Precipitation Wind Pressure Humidity
    00:00 +11°C° 0.6 mm 0 mps 621 mmHg 95%
    01:00 +12°C° 0.1 mm 1 mps 621 mmHg 95%
    02:00 +12°C° 0.1 mm 1 mps 621 mmHg 96%
    03:00 +12°C° 0.1 mm 1 mps 621 mmHg 96%
    04:00 +12°C° 0.8 mm 1 mps 621 mmHg 96%
    05:00 +12°C° 0.8 mm 1 mps 621 mmHg 96%
    06:00 +12°C° 0.8 mm 1 mps 621 mmHg 96%
    07:00 +11°C° 2 mm 1 mps 621 mmHg 94%
    08:00 +11°C° 2 mm 1 mps 622 mmHg 93%
    09:00 +10°C° 2 mm 2 mps 622 mmHg 92%
    10:00 +11°C° 4 mm 1 mps 622 mmHg 93%
    11:00 +10°C° 4 mm 1 mps 622 mmHg 93%
    12:00 +9°C° 4 mm 1 mps 621 mmHg 93%
    13:00 +10°C° 1 mm 1 mps 622 mmHg 90%
    14:00 +11°C° 1 mm 1 mps 622 mmHg 87%
    15:00 +12°C° 1 mm 2 mps 623 mmHg 84%
    16:00 +12°C° 0.1 mm 2 mps 622 mmHg 87%
    17:00 +10°C° 0.1 mm 2 mps 622 mmHg 89%
    18:00 +9°C° 0.1 mm 2 mps 622 mmHg 91%
    19:00 +8°C° 0 mm 2 mps 622 mmHg 91%
    20:00 +7°C° 0 mm 2 mps 622 mmHg 92%
    21:00 +6°C° 0 mm 2 mps 622 mmHg 93%
    22:00 +6°C° 0 mm 2 mps 621 mmHg 91%
    23:00 +5°C° 0 mm 2 mps 621 mmHg 89%

    Day after tomorrow, 21 August, Wednesday

    Time Temperature Precipitation Wind Pressure Humidity
    00:00 +5°C° 0 mm 2 mps 621 mmHg 87%
    01:00 +5°C° 0 mm 2 mps 621 mmHg 81%
    02:00 +5°C° 0 mm 2 mps 620 mmHg 76%
    03:00 +5°C° 0 mm 2 mps 620 mmHg 70%
    04:00 +5°C° 0 mm 2 mps 620 mmHg 65%
    05:00 +6°C° 0 mm 2 mps 620 mmHg 61%
    06:00 +6°C° 0 mm 2 mps 621 mmHg 56%
    07:00 +10°C° 0 mm 1 mps 622 mmHg 49%
    08:00 +13°C° 0 mm 1 mps 623 mmHg 42%
    09:00 +16°C° 0 mm 1 mps 624 mmHg 35%
    10:00 +18°C° 0 mm 1 mps 624 mmHg 34%
    11:00 +19°C° 0 mm 1 mps 624 mmHg 34%
    12:00 +20°C° 0 mm 1 mps 624 mmHg 33%
    13:00 +20°C° 0 mm 1 mps 624 mmHg 35%
    14:00 +20°C° 0 mm 1 mps 624 mmHg 36%
    15:00 +19°C° 0 mm 2 mps 624 mmHg 37%
    16:00 +18°C° 0 mm 1 mps 623 mmHg 47%
    17:00 +16°C° 0 mm 1 mps 622 mmHg 57%
    18:00 +14°C° 0 mm 1 mps 622 mmHg 66%
    19:00 +12°C° 0 mm 1 mps 621 mmHg 67%
    20:00 +11°C° 0 mm 1 mps 621 mmHg 68%
    21:00 +8°C° 0 mm 2 mps 621 mmHg 69%
    22:00 +8°C° 0 mm 2 mps 621 mmHg 61%
    23:00 +8°C° 0 mm 2 mps 621 mmHg 52%

    22 August, Thursday

    Time Temperature Precipitation Wind Pressure Humidity
    00:00 +7°C° 0 mm 2 mps 621 mmHg 44%
    01:00 +7°C° 0 mm 2 mps 621 mmHg 42%
    02:00 +7°C° 0 mm 2 mps 620 mmHg 40%
    03:00 +7°C° 0 mm 2 mps 620 mmHg 38%
    04:00 +7°C° 0 mm 2 mps 620 mmHg 40%
    05:00 +7°C° 0 mm 2 mps 621 mmHg 42%
    06:00 +7°C° 0 mm 2 mps 621 mmHg 44%
    07:00 +10°C° 0 mm 2 mps 622 mmHg 40%
    08:00 +14°C° 0 mm 2 mps 624 mmHg 35%
    09:00 +18°C° 0 mm 1 mps 625 mmHg 31%
    10:00 +20°C° 0 mm 1 mps 625 mmHg 29%
    11:00 +21°C° 0 mm 1 mps 626 mmHg 28%
    12:00 +22°C° 0 mm 1 mps 626 mmHg 26%
    13:00 +22°C° 0 mm 1 mps 626 mmHg 28%
    14:00 +22°C° 0 mm 1 mps 625 mmHg 29%
    15:00 +22°C° 0 mm 1 mps 625 mmHg 31%
    16:00 +20°C° 0 mm 1 mps 624 mmHg 41%
    17:00 +18°C° 0 mm 1 mps 623 mmHg 51%
    18:00 +15°C° 0 mm 1 mps 623 mmHg 61%
    19:00 +14°C° 0 mm 1 mps 622 mmHg 65%
    20:00 +12°C° 0 mm 1 mps 622 mmHg 68%
    21:00 +11°C° 0 mm 1 mps 621 mmHg 72%
    22:00 +11°C° 0 mm 1 mps 621 mmHg 70%
    23:00 +11°C° 0 mm 1 mps 621 mmHg 67%

    23 August, Friday

    Time Temperature Precipitation Wind Pressure Humidity
    00:00 +11°C° 0 mm 1 mps 621 mmHg 65%
    01:00 +11°C° 0 mm 1 mps 621 mmHg 65%
    02:00 +10°C° 0 mm 1 mps 620 mmHg 65%
    03:00 +10°C° 0 mm 1 mps 620 mmHg 65%
    04:00 +11°C° 0 mm 1 mps 620 mmHg 64%
    05:00 +11°C° 0 mm 1 mps 620 mmHg 62%
    06:00 +11°C° 0 mm 1 mps 621 mmHg 60%
    07:00 +14°C° 0 mm 1 mps 622 mmHg 52%
    08:00 +18°C° 0 mm 1 mps 623 mmHg 44%
    09:00 +21°C° 0 mm 1 mps 624 mmHg 36%
    10:00 +22°C° 0 mm 1 mps 624 mmHg 34%
    11:00 +23°C° 0 mm 2 mps 624 mmHg 32%
    12:00 +24°C° 0 mm 2 mps 625 mmHg 29%
    13:00 +24°C° 0 mm 2 mps 624 mmHg 30%
    14:00 +24°C° 0 mm 2 mps 624 mmHg 30%
    15:00 +24°C° 0 mm 2 mps 623 mmHg 31%
    16:00 +22°C° 0 mm 1 mps 623 mmHg 39%
    17:00 +20°C° 0 mm 1 mps 622 mmHg 47%
    18:00 +16°C° 0 mm 0 mps 621 mmHg 54%
    19:00 +16°C° 0 mm 1 mps 621 mmHg 55%
    20:00 +14°C° 0 mm 1 mps 620 mmHg 56%
    21:00 +13°C° 0 mm 1 mps 620 mmHg 57%
    22:00 +13°C° 0 mm 1 mps 620 mmHg 57%
    23:00 +13°C° 0 mm 1 mps 620 mmHg 57%

    24 August, Saturday

    Time Temperature Precipitation Wind Pressure Humidity
    00:00 +13°C° 0 mm 1 mps 620 mmHg 57%
    01:00 +13°C° 0 mm 1 mps 620 mmHg 57%
    02:00 +13°C° 0 mm 1 mps 619 mmHg 56%
    03:00 +13°C° 0 mm 1 mps 619 mmHg 56%
    04:00 +13°C° 0 mm 2 mps 619 mmHg 56%
    05:00 +13°C° 0 mm 2 mps 619 mmHg 56%
    06:00 +13°C° 0 mm 2 mps 620 mmHg 56%
    07:00 +16°C° 0 mm 1 mps 621 mmHg 48%
    08:00 +20°C° 0 mm 1 mps 622 mmHg 41%
    09:00 +24°C° 0 mm 1 mps 624 mmHg 33%
    10:00 +24°C° 0 mm 1 mps 624 mmHg 33%
    11:00 +24°C° 0 mm 1 mps 624 mmHg 32%
    12:00 +25°C° 0 mm 2 mps 624 mmHg 32%
    13:00 +24°C° 0 mm 1 mps 623 mmHg 35%
    14:00 +23°C° 0 mm 1 mps 623 mmHg 38%
    15:00 +23°C° 0 mm 1 mps 622 mmHg 42%
    16:00 +21°C° 0 mm 1 mps 622 mmHg 47%
    17:00 +20°C° 0 mm 1 mps 621 mmHg 53%
    18:00 +17°C° 0 mm 0 mps 621 mmHg 58%
    19:00 +18°C° 0 mm 1 mps 621 mmHg 58%
    20:00 +16°C° 0 mm 1 mps 621 mmHg 59%
    21:00 +15°C° 0 mm 1 mps 621 mmHg 59%
    22:00 +15°C° 0 mm 1 mps 621 mmHg 58%
    23:00 +15°C° 0 mm 1 mps 620 mmHg 57%
    Show more